Regional Weather Roundup
Issued by NWS

Home | Current Version | Previous Version | Text Only | Print | Product List | Glossary Off
Versions: 1 2 3 4 5 6 7 8 9 10 11 12 13 14 15 16 17 18 19 20 21 22 23 24 25 26 27 28 29 30 31 32 33 34 35 36 37 38 39 40 41 42 43 44 45 46 47 48 49 50

000
ASUS43 KMPX 041310
RWRMN
WEATHER ROUNDUP FOR MINNESOTA
NATIONAL WEATHER SERVICE TWIN CITIES/CHANHASSEN MN
800 AM CDT MON MAY 04 2015


NOTE: "FAIR" INDICATES FEW OR NO CLOUDS BELOW 12,000 FEET WITH NO
SIGNIFICANT WEATHER AND/OR OBSTRUCTIONS TO VISIBILITY. N/A MEANS
CURRENT SKY AND/OR WEATHER CONDITIONS ARE NOT AVAILABLE.

MNZ060>063-068>070-041400-
   Twin Cities Metro

CITY           SKY/WX    TMP DP  RH WIND       PRES   REMARKS
TWIN CITIES    MOSUNNY   55  36  48 VRB7      30.13R
ST PAUL        SUNNY     54  36  50 N9        30.14R
CRYSTAL        SUNNY     54  36  50 NE7       30.13R
LAKEVILLE      SUNNY     54  37  54 N8        30.13R
EDEN PRAIRIE   SUNNY     54  36  50 NE10G18   30.12R
SOUTH ST PAUL  SUNNY     55  37  50 N7        30.13R
LAKE ELMO      FAIR      52  37  58 N10       30.13F
$$
MNZ001>005-007-008-013>017-022>024-027-028-041400-
   Northwest Minnesota

CITY           SKY/WX    TMP DP  RH WIND       PRES   REMARKS
BEMIDJI        SUNNY     42  37  83 CALM      30.19R
HALLOCK        SUNNY     43  34  70 CALM      30.20R
ROSEAU         SUNNY     41  36  81 CALM      30.20R
WARROAD        SUNNY     41  37  87 W5        30.19R
THIEF RVR FALL SUNNY     45  36  70 SE3       30.21R
CROOKSTON      SUNNY     48  37  66 E3        30.21R
FOSSTON        SUNNY     48  34  57 CALM      30.21
DETROIT LAKES  MOSUNNY   48  37  66 E3        30.21R
MOORHEAD       PTSUNNY   46  32  57 E5        30.20R
PARK RAPIDS    MOSUNNY   49  38  65 N3        30.19R
MAHNOMEN       FAIR      45  35  66 CALM      30.20R
$$
MNZ006-009>011-018-025>026-041400-
   North Central Minnesota

CITY           SKY/WX    TMP DP  RH WIND       PRES   REMARKS
BAUDETTE       SUNNY     43  38  82 W6        30.19R
FLAG ISLAND    SUNNY     43  36  75 NW7       30.18R
INTL FALLS     SUNNY     44  37  76 NW10      30.16R
WASKISH        SUNNY     45  39  81 CALM      30.19R
BIG FORK       SUNNY     45  37  76 NW5       30.18R
LONGVILLE      MOSUNNY   48  43  81 N5        30.18R
GRAND RAPIDS   SUNNY     46  36  66 NW8       30.18R
CRANE LAKE     SUNNY     43  37  81 NW3       30.16R
ORR            SUNNY     43  36  75 NW7       30.13R
COOK           SUNNY     43  37  81 W6        30.16R
WALKER         FAIR      44  36  73 CALM      30.19R
$$
MNZ012-019>021-037-041400-
   Northeast Minnesota

CITY           SKY/WX    TMP DP  RH WIND       PRES   REMARKS
DULUTH         SUNNY     50  37  61 NW9       30.14R
ELY            SUNNY     45  37  76 NW6       30.13R
HIBBING        SUNNY     48  37  65 N13       30.15R
EVELETH        SUNNY     46  36  66 N7        30.15R
DULUTH HARBOR    N/A     52  41  66 W3        30.16R
TWO HARBORS    SUNNY     54  41  62 NW5       30.10R
SILVER BAY     SUNNY     54  37  54 CALM      30.09R
GRAND MARAIS     N/A     50  37  61 S5        30.07R
G MARAIS ARPRT SUNNY     46  36  66 NW12G24   30.06R
$$
MNZ029>031-032-039>041-046>048-054>057-064-041400-
   West Central Minnesota

CITY           SKY/WX    TMP DP  RH WIND       PRES   REMARKS
FERGUS FALLS   PTSUNNY   48  36  61 CALM      30.20R
WHEATON        MOSUNNY   46  34  61 CALM      30.20S
MORRIS         MOSUNNY   48  34  57 CALM      30.17S
ALEXANDRIA     MOSUNNY   51  36  56 E7        30.19R
ELBOW LAKE     FAIR      52  38  58 E5        30.18R
WADENA         MOSUNNY   45  36  70 CALM      30.20R
GLENWOOD       SUNNY     50  36  57 NE7       30.18R
APPLETON       SUNNY     50  34  53 CALM      30.17R
BENSON         SUNNY     48  36  61 NE6       30.17R
ORTONVILLE     SUNNY     48  32  53 NW5       30.18R
MADISON        SUNNY     46  34  61 NW6       30.17R
WILLMAR        FAIR      55  37  50 NE9       30.16S
$$
MNZ033>034-036-042>043-049>051-058-059-041400-
   Central Minnesota

CITY           SKY/WX    TMP DP  RH WIND       PRES   REMARKS
ST CLOUD       SUNNY     48  37  65 N5        30.16R
SAUK CENTRE    FAIR      47  36  64 N5        30.18S
PAYNESVILLE    SUNNY     47  34  60 N8        30.17S
AITKIN         SUNNY     48  37  66 CALM      30.16R
PINE RIVER     MOSUNNY   46  39  76 NW3       30.21R
BRAINERD       SUNNY     49  42  77 N3        30.19R
STAPLES        SUNNY     43  36  75 CALM      30.19R
LONG PRAIRIE   FAIR      46  34  61 N3        30.19R
LITTLE FALLS   SUNNY     48  36  61 CALM      30.18R
LITCHFIELD     SUNNY     52  36  54 N7        30.16R
BUFFALO        SUNNY     52  35  54 N9        30.16S
MAPLE LAKE     SUNNY     52  40  62 N5        30.17R
$$
MNZ037-044-045-052-053-041400-
   East Central Minnesota

CITY           SKY/WX    TMP DP  RH WIND       PRES   REMARKS
PRINCETON      SUNNY     52  37  58 N5        30.17R
MORA           SUNNY     50  36  57 CALM      30.19R
CAMBRIDGE      SUNNY     54  37  54 N5        30.15R
RUSH CITY      MOSUNNY   50  37  59 N5        30.17R
MOOSE LAKE     SUNNY     48  36  61 NW7       30.14R
HINCKLEY       FAIR      50  37  62 CALM      30.17R
CLOQUET        SUNNY     48  36  61 NW7       30.15R
MCGREGOR       SUNNY     46  37  71 NW7       30.18R
$$
MNZ071>073-080-081-089-090-097-098-041400-
   Southwest Minnesota

CITY           SKY/WX    TMP DP  RH WIND       PRES   REMARKS
MONTEVIDEO     SUNNY     48  34  57 N3        30.17R
GRANITE FALLS  SUNNY     48  33  55 CALM      30.17R
CANBY          SUNNY     51  32  49 N6        30.17S
MARSHALL       SUNNY     48  27  43 NW6       30.16R
REDWOOD FALLS  SUNNY     54  33  45 NE6       30.15R
OLIVIA         SUNNY     52  32  46 NE12      30.13S
PIPESTONE      SUNNY     50  28  43 NE9       30.13R
WINDOM         MOSUNNY   54  32  43 N10       30.13R
WORTHINGTON    MOSUNNY   52  28  40 N15       30.13R
JACKSON        MOSUNNY   55  32  41 NE17      30.12R
TRACY          MOSUNNY   50  31  48 N6        30.16R
SLAYTON        MOSUNNY   51  30  45 CALM      30.16R
$$
MNZ065>067-074>077-082>085-091>093-041400-
   South Central Minnesota

CITY           SKY/WX    TMP DP  RH WIND       PRES   REMARKS
MANKATO          N/A    N/A N/A N/A MISG        N/A
NEW ULM        SUNNY     54  34  47 NE9       30.13R
ST JAMES       SUNNY     55  32  41 N8        30.13R
FAIRMONT       MOSUNNY   54  34  47 NE9       30.11R
GLENCOE        SUNNY     54  38  54 NE6       30.13R
FARIBAULT      SUNNY     54  39  58 N9        30.11S
OWATONNA       SUNNY     55  37  50 NE13      30.11R
WASECA         SUNNY     54  37  54 NE14      30.12R
ALBERT LEA     MOSUNNY   55  43  62 NE14      30.10R
$$
MNZ078>079-086>088-094>096-041400-
   Southeast Minnesota

CITY           SKY/WX    TMP DP  RH WIND       PRES   REMARKS
ROCHESTER      PTSUNNY   54  42  64 NE13      30.11R
RED WING       SUNNY     55  37  50 N6        30.11R
STANTON        SUNNY     54  42  65 N10       30.11R
DODGE CENTER   MOSUNNY   54  41  62 NE8       30.11R
WINONA         PTSUNNY   55  45  67 NW5       30.09R
AUSTIN         MOSUNNY   54  43  66 NE12      30.09R
PRESTON        PTSUNNY   53  46  78 N9        30.09R
$$
ABBREVIATIONS USED IN REMARKS
   TC - TEMPERATURES IN CELSIUS
  WCI - WIND CHILL INDEX
   HX - HEAT INDEX
  VSB - VISIBILITY
$$



USA.gov is the U.S. government's official web portal to all federal, state and local government web resources and services.